STARLINK-1821, 46718

Orbit data source: Space-Track

STARLINK-1821, 46718 is a payload satellite owned by SpaceX/Seattle (US) in LEO that was launched on Sun, 18 Oct 2020 UTC via an FALCON 9 launch vehicle from the Air Force Eastern Test Range (AFETR). Payload-class satellites include a variety of spacecraft equipped with specific instruments for various scientific and technological missions. These include communications satellites like Starlink; space stations such as the ISS; scientific satellites like the Hubble; Earth observation satellites from companies like Planet Labs, Umbra, and HawkEye 360; GPS; miniature CubeSats for education and research; and military/defense satellites.

Loading next visibility...
Identifier
46718, 2020-073BA
Orbit
LEO
Country
Flag of USUS
Related business
Manufacturer
SpaceX/Seattle
Mission
Partially operational Commercial Communications
Bus & Motor
STARLINK, Unknown motor
Mass
260 kg wet, ~248 kg dry
Launch date (UTC)
2020-10-18 (5 years ago)
Launch vehicle
FALCON 9
Launch site
Air Force Eastern Test Range (AFETR)
Object type
Payload
Rocket body
Debris
Shape & HBR
Box + 1 Pan, 10.1 m
Radar Cross Section
13.562 m², Large (>1 m²)

Expand to show TLE details & history
Last TLE update: 16 hours ago

TLE from 16 hours ago
0 STARLINK-1821
1 46718U 20073BA  25288.95821838  .00051008  00000-0  22964-2 0  9996
2 46718  53.0472 178.7262 0006166  79.3959 280.7730 15.20591626275214
Epoch: 2025-10-15T22:59Z
TLE epoch observation values (Epoch: 2025-10-15T22:59:50.068Z)
Latitude
-0.00003°
Longitude
169.04273°
Altitude
504.148 km
Speed
7.614 km/s
True Right ascension
11h 54m 54s
True Declination
0° 00' 00"
Sunlit
Object was in daylight at epoch
Visualization orbit readout
Latitude
Unknown
Longitude
Unknown
Altitude
Unknown
Speed
Unknown
Apparent Right ascension
Unknown
Apparent Declination
Unknown
Sunlit
N/A
Visualization observer readout
Local Sidereal Time
09:49:15
Azimuth
Unknown
Elevation
Unknown
Doppler factor
Unknown
Orbital elements
Apogee altitude
508.572 km
Perigee altitude
500.085 km
Semi-major axis
6,882.465 km
Eccentricity
0.00062
Inclination
53.0472°
RAAN
178.7262°
Arg. of periapsis
79.3959°
True anomaly
280.70358°
Mean anomaly
280.773°
Eccentric anomaly
280.73829°
Mean motion
3.80126 °/min
Orbital period
94.71 mins
BSTAR
0.0022964
Loading maneuver chart data...
Computing Atmospheric mass density...

Documentation

Showing up to 5 results
|